Theta_e
313 312 311 312 318 320 320 320 319 319 318 317 317 317 318 319 320 320 320 320 323 328 328 327 331 339 345 348 347 346 348 349 351 357 355 349 350 351 351 351 349 347 342 335 333 333 334 334 334 332 332 332 333 337 338 338 338 338 338 335 332 332 332 332 333 334 332 326 325 324 323 323 322 321 319 319 321 323 323 322 322 319 319 321 321 318 316 316 315 315 315 315 315 315 315 314 315
312 313 311 313 320 321 321 320 318 319 317 316 316 316 318 320 322 320 320 322 327 331 330 329 334 344 348 348 347 346 348 349 350 352 351 349 350 350 351 351 349 347 343 336 333 334 334 335 334 332 331 331 333 336 338 338 338 338 338 336 332 331 332 333 335 334 329 324 325 324 323 323 323 324 324 324 325 326 325 324 322 320 317 317 319 319 317 316 315 315 315 314 314 314 314 314 314
312 316 316 317 320 320 321 320 319 319 317 316 316 318 319 319 320 321 326 330 332 332 330 335 339 344 348 348 347 348 348 349 351 351 350 350 350 349 350 350 348 346 342 336 333 335 335 335 334 332 330 330 333 336 337 337 338 338 338 336 333 331 332 334 336 332 325 322 322 323 323 323 323 324 326 326 327 327 326 324 321 320 319 318 318 318 317 316 316 315 315 314 314 313 313 313 313
314 318 321 323 321 318 321 323 322 319 317 317 316 320 321 320 320 322 330 333 333 331 331 340 346 348 349 349 347 349 350 348 351 351 351 350 349 349 350 350 347 344 340 336 334 335 335 335 335 333 330 328 331 334 336 337 338 338 337 336 332 330 332 335 335 329 321 319 319 321 322 323 323 324 325 326 326 327 326 324 321 319 319 319 318 318 317 316 316 315 315 315 313 313 313 313 313
317 321 323 326 322 316 321 324 324 321 318 318 317 320 321 321 322 323 325 328 331 330 331 340 348 350 350 351 349 350 350 350 351 351 352 350 350 350 350 348 346 343 338 335 335 335 335 335 335 333 331 328 328 332 335 336 337 337 337 336 332 331 333 335 332 324 318 316 317 319 320 321 323 324 326 327 327 327 326 325 322 319 318 319 317 316 317 317 317 316 315 314 314 313 313 313 314
318 322 323 325 322 318 320 322 322 320 320 321 320 321 321 320 322 323 322 323 327 327 331 342 348 350 350 351 350 349 349 350 351 352 351 350 351 350 350 347 345 342 336 335 335 335 336 335 335 334 331 329 328 330 332 335 337 337 337 336 331 331 334 333 327 318 315 315 316 318 318 320 322 324 327 327 326 326 325 325 321 318 318 318 318 316 317 317 317 317 316 314 314 313 313 313 314
318 321 321 321 320 318 321 321 320 320 320 321 321 322 321 321 321 321 323 321 323 324 329 343 346 349 351 350 350 350 349 350 351 351 351 351 350 349 348 346 344 341 336 335 335 335 336 335 335 334 332 330 329 329 330 333 335 336 337 335 331 333 333 330 322 316 316 317 318 318 317 318 319 322 323 323 322 322 323 322 319 319 319 318 318 317 317 317 316 318 317 315 314 313 314 314 314
317 318 317 318 318 317 321 321 320 321 321 321 320 322 321 320 320 320 323 320 322 322 323 338 342 349 351 350 350 350 350 350 350 351 351 350 349 348 347 345 342 339 336 335 335 335 336 335 335 334 333 332 330 329 330 331 333 335 336 333 332 333 330 325 319 316 319 321 321 319 317 317 318 320 320 320 320 320 321 320 320 322 323 320 319 318 317 316 315 318 319 317 314 313 314 313 314
315 315 317 317 316 316 317 318 319 320 320 321 319 320 321 320 320 320 321 320 321 321 323 331 337 350 351 350 350 350 351 350 350 351 350 349 348 347 346 344 342 338 336 336 336 336 336 335 335 335 335 333 332 331 330 330 331 333 334 332 332 331 325 320 317 319 323 324 323 322 321 322 322 323 322 321 320 321 323 324 324 325 326 325 324 322 319 317 316 316 318 319 315 314 313 314 315
314 314 317 317 316 315 313 314 316 317 318 319 318 319 320 320 320 320 320 321 319 322 330 336 341 350 350 350 351 351 351 350 350 349 348 348 348 347 345 345 343 339 338 337 336 336 336 335 335 335 335 334 334 332 331 330 330 331 332 332 332 328 320 317 319 323 327 327 327 327 328 328 327 328 326 326 325 325 326 326 326 326 325 325 324 323 320 318 318 316 316 318 317 315 313 314 316
315 314 316 317 317 316 314 313 314 316 317 318 319 319 321 320 320 320 320 321 319 322 330 342 348 350 350 350 351 351 350 350 349 349 349 349 348 347 346 346 345 343 341 338 336 336 335 335 335 335 335 335 334 332 331 331 330 330 331 331 329 323 318 319 323 327 328 329 331 331 331 331 331 331 331 331 330 330 330 328 327 326 324 322 321 320 319 318 319 319 317 317 318 316 314 314 316
315 315 316 317 318 318 317 316 315 317 317 318 319 319 321 320 321 321 320 321 320 320 322 340 349 349 350 350 350 351 350 350 349 348 349 348 348 347 346 346 345 345 343 338 336 336 335 334 334 335 335 335 334 333 331 330 330 330 330 330 326 320 318 321 326 329 331 333 333 332 332 332 333 333 333 333 332 331 331 330 328 327 325 323 322 321 320 319 318 319 319 318 318 317 316 315 316
316 315 315 317 319 318 317 316 317 319 318 319 319 320 321 320 322 321 321 321 320 324 327 341 347 348 350 350 351 351 351 349 349 349 349 348 348 347 347 347 346 346 343 338 337 336 335 334 334 334 335 335 334 333 332 331 329 328 328 327 323 319 319 322 328 332 333 334 334 333 333 334 334 333 333 333 332 330 328 329 328 328 326 324 322 321 321 320 320 319 318 318 318 318 317 317 316
316 315 315 316 318 316 316 315 315 316 316 319 320 321 321 320 322 322 324 323 325 335 341 346 345 348 350 351 351 351 351 350 348 349 350 349 348 348 347 347 346 346 342 338 337 336 335 334 334 334 334 334 334 334 332 330 328 327 326 325 321 319 320 324 329 333 334 334 334 334 334 334 334 333 333 332 332 329 327 328 330 330 325 321 320 319 318 319 320 320 319 318 318 318 317 317 316
316 316 316 317 317 316 316 315 316 314 316 320 320 321 321 321 322 325 324 322 333 341 342 343 339 346 351 350 351 351 351 349 348 349 349 349 348 347 347 346 346 345 341 337 336 336 335 334 334 334 334 334 334 333 332 330 328 326 324 323 321 319 322 326 330 333 334 334 334 334 334 335 334 333 333 331 330 328 328 329 331 330 324 321 320 319 319 317 317 319 320 319 318 317 317 317 317
315 316 316 317 316 315 316 317 317 316 318 320 320 320 320 321 321 325 323 323 337 341 340 342 337 342 349 349 350 350 350 350 348 349 349 348 347 347 346 346 346 344 340 337 336 335 335 334 334 333 334 334 334 333 331 330 329 326 323 322 321 321 324 328 330 332 334 334 333 334 334 334 334 333 332 330 328 327 328 329 329 328 324 322 321 321 321 319 318 318 318 319 318 317 317 317 317
315 315 316 316 316 315 316 317 317 317 318 320 320 319 320 321 323 324 325 332 341 342 343 343 340 341 346 347 348 349 350 349 348 348 349 348 347 347 346 346 345 344 339 336 336 335 335 334 334 333 333 333 333 333 332 331 331 328 324 322 322 323 327 329 331 333 333 333 333 334 334 334 334 332 331 330 327 326 326 326 327 326 324 323 322 322 322 321 320 319 318 318 318 318 317 317 318
315 316 316 315 315 315 316 317 318 318 319 320 320 320 320 321 324 324 326 336 343 345 347 347 346 347 346 347 349 350 350 349 348 348 348 348 347 347 346 346 345 344 340 335 335 334 334 333 333 333 333 333 333 333 332 333 333 330 326 323 323 326 329 330 332 333 332 332 333 334 334 333 332 330 328 328 326 325 326 326 325 325 324 323 323 323 323 322 321 321 320 318 318 318 319 320 322
315 317 317 315 316 316 316 318 318 318 319 320 320 320 320 319 323 325 324 335 343 345 348 349 349 350 349 349 349 349 349 349 349 348 348 347 347 346 346 345 345 345 341 336 335 334 334 333 333 333 333 334 334 334 333 334 334 332 328 324 324 329 330 330 332 332 331 332 333 333 333 332 330 327 327 327 326 326 327 327 327 326 325 324 324 324 323 323 322 322 320 319 318 318 321 324 327
315 316 316 316 316 317 317 318 318 319 319 319 320 319 320 319 321 324 324 334 340 343 347 350 350 350 349 349 349 349 349 348 348 348 348 347 346 345 345 345 345 344 341 338 337 337 337 335 333 333 333 333 334 334 334 335 335 333 330 326 327 331 329 328 331 331 331 333 333 332 331 330 328 326 328 329 329 329 329 328 328 327 327 326 325 324 324 324 323 322 321 321 321 320 323 326 328
315 315 315 316 317 317 317 318 318 318 319 318 320 319 319 319 320 322 325 336 341 340 344 349 349 350 349 349 349 349 349 348 348 348 348 347 346 345 344 344 344 343 341 340 340 340 340 337 335 333 333 333 334 334 335 336 335 333 331 329 330 332 330 328 330 330 331 333 331 330 328 328 328 327 329 331 331 330 329 329 328 328 328 327 327 326 325 324 323 322 322 323 323 323 323 323 324
315 315 315 315 316 317 317 318 318 318 319 318 318 319 319 318 320 319 320 334 340 338 340 345 348 349 349 348 348 348 349 348 348 348 348 348 346 345 344 345 345 343 342 341 341 340 340 339 338 335 334 334 334 334 335 335 335 333 331 331 332 332 330 328 328 328 330 331 329 328 328 328 329 328 327 329 330 330 329 329 328 328 328 328 328 328 327 327 325 324 323 323 324 326 326 326 327
314 314 315 316 317 317 317 318 318 318 319 318 318 319 319 318 319 320 324 332 336 336 338 341 345 348 348 349 347 347 348 348 348 348 348 348 347 346 345 345 345 343 342 341 341 341 340 340 339 336 335 334 334 334 335 335 334 332 330 331 333 332 330 328 327 327 329 330 327 328 328 328 329 327 326 328 329 329 329 329 329 329 329 328 328 328 328 329 328 327 327 325 325 328 329 328 329
315 314 315 317 317 317 318 318 318 318 319 318 319 318 318 319 318 320 330 334 334 335 338 340 344 347 348 348 347 346 347 347 348 348 348 348 347 347 345 345 344 343 343 342 342 341 340 340 339 337 335 334 334 334 335 334 332 332 330 331 332 332 329 327 328 328 329 328 328 328 327 327 328 326 327 329 329 329 329 329 329 329 329 328 327 328 329 329 328 327 327 328 327 328 328 329 329
314 314 315 317 317 318 318 318 318 318 319 318 318 318 317 318 318 318 328 335 334 334 336 338 342 345 347 347 346 346 346 346 348 348 348 347 347 347 345 345 344 343 343 343 342 341 340 339 338 336 335 335 335 334 335 333 332 333 331 331 332 331 329 327 329 329 329 329 328 328 327 328 327 326 327 329 329 329 329 329 329 329 329 329 328 329 329 328 328 327 326 327 328 328 328 327 328
314 315 315 316 317 318 318 318 318 318 318 318 317 318 317 318 319 317 324 333 333 333 334 334 337 343 345 345 344 345 346 346 347 348 348 347 347 347 345 345 343 341 341 341 340 339 339 338 338 336 336 337 335 335 335 333 333 333 331 330 331 330 329 328 329 329 329 329 328 327 327 326 326 327 328 329 329 329 328 329 330 329 329 330 330 330 328 328 328 328 327 328 328 328 327 326 327
315 315 315 316 317 317 318 317 318 318 318 318 317 317 317 317 318 317 319 330 334 333 334 333 335 341 344 341 341 343 344 346 347 348 348 347 347 347 345 343 340 339 339 340 339 339 338 337 337 337 337 336 334 334 332 331 333 333 331 331 331 331 330 329 328 328 328 329 329 328 326 324 326 327 328 328 328 328 329 329 330 330 330 330 330 329 328 328 328 329 329 328 327 327 327 327 327
315 315 315 315 316 316 317 317 317 318 318 318 319 317 317 317 317 317 317 326 334 334 333 334 337 341 342 339 341 342 343 346 347 347 348 347 347 347 343 339 338 338 338 339 339 338 337 336 337 337 337 335 332 331 329 330 332 333 333 332 331 331 330 328 328 328 328 328 329 328 327 326 327 328 328 327 325 326 329 330 330 330 329 329 330 329 329 329 329 329 329 328 326 326 328 328 328
315 315 315 315 316 316 317 317 317 317 318 319 318 316 316 316 316 318 316 321 332 334 333 335 338 342 341 338 340 341 343 345 346 346 347 347 347 346 340 337 337 337 337 338 338 337 336 335 336 337 336 334 331 329 329 330 331 332 333 331 330 330 329 329 329 329 329 329 329 328 328 328 327 327 327 326 325 327 329 329 330 330 329 329 330 330 329 328 329 329 329 327 326 327 328 328 328
315 315 315 315 315 316 317 317 318 317 317 319 318 315 316 316 315 318 318 318 329 334 335 336 338 339 338 337 339 342 344 346 346 346 347 346 345 343 339 337 338 338 338 337 337 337 335 335 336 336 335 333 330 328 328 329 329 330 331 331 329 329 330 330 331 331 330 330 330 329 329 327 326 326 326 326 327 328 329 329 329 330 329 328 328 329 328 328 329 329 328 327 327 327 327 327 327
315 315 315 315 314 315 317 316 317 316 317 319 317 314 316 317 316 317 318 317 324 331 334 335 336 336 337 338 338 342 345 345 346 347 347 345 343 342 339 339 339 339 338 336 335 335 335 336 336 335 335 333 330 328 327 328 328 329 329 329 328 329 330 330 330 329 329 330 329 328 327 327 327 327 327 328 328 328 328 329 329 330 329 329 328 328 328 327 328 328 327 328 328 326 327 327 328
316 315 314 315 314 314 316 316 317 316 317 318 316 315 317 317 317 317 318 317 320 326 330 332 334 335 337 339 339 341 343 344 345 346 346 343 341 341 340 339 338 339 339 337 336 335 334 335 335 334 335 334 331 329 328 329 329 328 328 326 326 329 330 329 329 328 329 330 328 324 325 327 328 327 327 327 328 328 328 329 329 329 329 329 329 328 327 326 326 326 326 327 327 326 327 328 327
317 315 315 316 314 313 315 315 317 316 316 317 316 316 317 318 317 317 318 317 318 322 326 329 333 335 337 340 338 339 343 344 346 345 344 342 340 339 339 338 338 338 339 338 337 335 334 335 335 334 333 332 330 328 327 328 328 328 327 325 326 329 330 329 329 329 330 329 327 325 325 326 327 326 326 327 329 329 329 330 329 329 329 329 329 329 327 326 325 326 326 326 327 327 327 327 326
318 316 315 316 314 314 314 314 316 316 316 316 316 316 317 318 317 316 317 317 319 321 321 327 333 334 334 337 337 338 341 344 346 345 343 342 338 336 338 338 337 338 338 337 336 335 334 334 333 332 331 329 328 327 327 328 329 328 327 327 328 330 330 329 328 328 329 328 327 325 323 323 325 327 328 329 330 330 329 329 330 329 328 329 329 328 327 326 325 325 326 327 327 327 326 326 327
317 317 316 315 314 313 313 313 315 315 315 316 316 316 317 319 318 316 316 317 318 321 321 325 332 335 334 335 337 338 340 343 345 344 343 341 337 337 338 338 337 337 337 336 334 333 333 333 332 330 330 329 328 327 328 328 328 328 329 330 330 330 330 330 329 328 327 328 327 324 322 323 327 329 330 330 329 330 330 329 329 328 328 329 328 327 327 326 326 325 326 327 326 326 326 327 327
315 316 316 314 313 314 313 314 315 316 315 316 316 315 316 317 318 317 317 317 318 320 320 323 332 336 335 336 339 340 341 343 343 341 341 339 337 338 337 337 336 335 336 336 334 332 332 332 331 329 329 330 328 326 326 325 325 328 329 329 329 330 330 330 330 326 325 328 327 326 326 325 327 328 328 329 329 329 330 328 328 328 328 328 327 327 326 326 327 326 326 326 326 326 327 327 327
316 315 315 314 313 314 316 315 316 316 315 315 316 316 316 316 319 318 317 317 318 321 320 323 332 337 337 339 341 341 341 340 339 338 337 337 337 337 334 334 335 333 335 336 334 332 331 331 330 328 328 328 326 325 326 324 324 327 329 329 328 329 330 330 329 326 326 326 325 326 327 325 326 327 327 327 327 327 328 327 328 328 328 328 328 327 327 327 328 327 326 325 326 327 327 327 327
318 317 315 314 315 316 317 317 317 317 317 316 317 318 316 317 319 318 318 320 321 323 321 323 332 337 336 338 338 338 337 336 335 335 336 337 337 335 332 333 334 334 335 336 334 331 331 331 330 328 328 326 324 325 326 325 325 327 329 329 328 328 329 329 327 327 327 325 323 322 322 320 322 323 323 325 326 326 327 327 327 328 328 328 328 328 327 328 328 328 327 327 327 327 327 327 327
319 318 317 316 317 317 317 320 318 317 319 317 317 317 318 319 319 319 321 323 322 322 322 323 332 337 335 335 335 334 334 333 334 334 336 336 335 334 334 334 334 334 334 334 332 330 329 331 330 329 327 324 324 325 324 323 323 327 327 327 326 327 329 328 328 329 327 327 325 320 318 319 321 320 319 321 324 324 325 325 325 326 326 326 327 327 327 327 327 328 327 327 327 327 327 327 326
322 320 318 317 318 316 317 322 321 321 325 322 320 321 324 321 318 322 321 321 321 321 323 321 328 334 333 334 333 333 333 331 332 333 335 335 332 333 334 334 334 334 334 333 332 330 329 329 329 329 326 324 325 324 322 322 323 326 325 325 325 326 328 328 328 326 324 325 324 320 322 325 325 325 323 322 321 320 320 321 323 324 324 326 327 326 326 326 325 326 327 327 328 328 327 327 327
325 323 320 319 318 317 317 321 323 328 330 329 327 327 332 328 320 324 322 321 324 321 323 320 326 332 332 332 331 331 331 330 330 331 332 333 332 334 334 333 333 333 333 332 331 331 330 329 329 328 325 324 324 323 323 324 325 327 326 326 327 327 328 327 321 317 316 317 316 319 324 326 325 325 326 324 321 321 322 322 322 322 321 324 326 326 326 326 326 326 326 326 327 327 327 327 327
324 325 323 321 319 319 319 318 320 324 324 327 325 322 330 333 322 324 324 324 325 322 325 320 326 331 331 331 331 330 331 330 329 330 329 329 332 334 333 332 332 332 332 331 331 331 331 330 328 326 323 323 325 325 326 326 325 326 326 327 327 329 329 323 316 317 318 316 316 320 323 324 325 325 325 322 318 321 325 325 324 321 319 321 324 327 326 326 327 326 326 325 325 326 327 327 326
321 322 322 320 319 318 319 318 317 318 320 325 323 319 326 331 322 323 324 324 326 326 328 325 328 330 331 330 331 331 331 331 330 330 329 328 330 333 332 331 331 331 331 330 330 330 330 329 327 324 323 324 327 327 326 326 326 326 326 327 328 329 326 319 318 323 323 318 319 324 323 322 324 323 322 319 316 320 324 325 324 324 322 321 322 325 324 324 326 326 325 325 324 325 326 326 325
319 320 319 317 317 317 319 318 315 319 325 324 322 321 322 322 322 325 324 323 327 327 328 330 329 330 331 331 332 332 331 331 330 329 328 328 330 332 332 331 330 330 330 330 330 329 328 327 325 323 322 325 327 326 326 327 325 324 326 328 326 323 320 319 322 325 324 321 320 323 322 321 323 324 322 319 315 318 321 323 325 325 324 323 322 322 321 322 324 324 324 324 323 324 325 326 325
319 319 318 316 316 316 317 317 316 322 325 321 321 322 319 320 325 326 322 321 325 327 328 329 329 331 331 331 331 331 332 331 330 329 328 328 330 332 332 330 329 330 330 330 330 329 328 327 325 323 322 324 327 327 327 327 324 323 327 326 320 320 320 321 324 325 323 321 320 322 322 323 324 325 324 322 320 320 321 323 325 324 325 324 322 320 320 322 323 322 322 322 322 322 323 325 325
318 317 318 316 315 317 316 316 317 319 322 322 323 322 319 324 330 325 321 321 324 327 329 329 330 331 331 331 331 330 331 330 330 330 329 330 331 332 332 330 330 333 332 330 328 328 328 327 325 323 322 325 327 327 326 325 322 321 322 321 320 324 325 323 324 324 320 320 322 324 324 324 324 324 323 324 324 322 321 323 324 323 323 323 320 319 320 322 321 321 322 322 322 322 322 324 325
318 317 317 315 316 319 318 319 318 317 322 325 325 322 318 324 333 330 325 327 329 330 329 330 329 330 331 331 331 331 331 331 331 331 331 331 331 331 331 329 331 333 331 327 326 326 328 326 324 322 323 325 325 325 324 319 315 316 318 321 324 326 325 321 320 318 318 321 324 325 324 323 323 322 322 324 324 322 321 321 323 323 323 322 321 320 320 320 319 320 322 322 322 323 323 324 324
316 316 316 316 320 321 317 317 315 316 323 324 320 319 318 320 329 331 328 330 332 329 329 331 330 330 331 330 332 332 331 332 332 332 331 330 331 331 330 329 331 332 329 325 325 326 326 325 322 322 323 324 322 323 320 314 315 318 320 325 327 326 321 315 313 313 316 320 322 323 321 320 320 320 320 322 324 323 320 318 321 323 323 322 322 321 320 319 317 319 321 322 322 323 324 324 324
316 317 316 317 319 319 318 318 318 321 326 324 319 318 320 323 326 329 329 330 331 329 329 331 330 331 331 331 332 333 332 333 332 333 331 330 330 330 330 331 331 329 326 325 325 325 325 323 323 323 323 322 320 321 317 312 317 319 318 323 326 322 314 310 310 309 311 316 319 321 320 318 316 314 314 317 318 317 313 312 318 322 322 321 321 320 318 317 316 316 318 320 322 323 324 324 323
316 317 318 319 321 320 319 320 320 322 324 323 319 317 323 329 328 327 329 327 328 329 329 330 331 331 331 331 332 333 333 333 332 333 332 330 329 329 330 331 330 327 326 325 325 324 323 323 325 324 321 320 320 320 315 313 318 318 318 323 323 318 312 309 310 308 309 317 320 320 319 317 314 311 311 312 311 310 307 308 314 319 320 320 319 318 316 315 314 313 315 318 321 323 323 323 323
317 318 317 321 326 324 321 321 320 321 324 326 322 319 325 331 329 328 327 325 326 327 329 331 331 330 331 331 332 333 333 332 332 332 332 331 330 329 329 329 327 326 326 326 325 324 323 323 325 324 320 319 320 319 314 316 321 321 322 326 324 318 312 309 311 310 311 316 318 318 319 318 316 311 310 310 309 308 306 306 309 315 319 318 317 316 313 312 311 310 310 311 315 321 323 322 322
324 321 313 318 326 326 324 325 322 321 326 327 324 325 327 329 330 328 326 326 328 327 328 330 330 331 331 331 332 333 333 332 331 332 333 333 331 330 329 329 327 327 326 327 326 324 323 322 324 325 322 320 320 319 316 318 322 323 324 326 323 316 311 311 313 314 312 313 316 319 320 320 318 312 308 308 307 306 306 306 307 311 315 316 315 312 308 307 307 307 306 305 310 318 321 321 320
329 322 314 319 324 322 323 325 323 322 324 323 325 329 326 325 329 327 326 329 329 328 328 328 330 331 331 331 331 332 332 331 330 331 332 333 333 331 330 330 330 329 327 327 326 325 324 322 323 326 324 320 321 322 321 321 322 323 324 323 318 314 312 315 316 316 315 314 318 322 321 320 318 312 308 307 306 305 305 306 305 307 309 309 309 308 306 306 305 305 306 305 307 313 317 317 317
323 319 317 322 323 325 327 325 323 323 322 321 327 329 325 327 329 326 329 332 330 329 329 328 329 331 331 330 330 330 332 331 329 330 330 331 333 332 330 331 330 329 327 327 326 326 325 324 324 325 323 320 321 323 323 322 321 323 323 318 314 314 316 319 319 318 317 316 319 322 320 318 316 311 308 306 305 305 305 305 305 306 306 306 305 305 305 305 305 305 305 304 305 307 309 310 309
319 320 319 323 329 333 331 323 321 324 324 322 325 329 328 329 330 327 329 331 331 331 330 328 329 330 330 329 329 329 330 330 330 330 330 332 332 331 331 331 330 328 328 327 327 327 327 325 324 324 323 322 323 324 324 322 321 322 321 315 315 318 320 322 321 318 316 316 318 320 317 315 313 309 307 305 305 305 304 305 305 305 305 304 304 304 304 304 304 304 305 305 306 306 306 307 306
316 318 316 322 332 333 329 324 322 325 327 324 325 332 335 333 331 330 330 330 331 332 331 330 329 329 330 329 329 329 328 329 329 329 330 331 332 332 331 331 330 329 329 328 329 329 328 326 325 324 324 324 325 325 324 323 321 321 320 316 318 322 323 323 322 317 313 313 316 317 315 313 311 307 305 305 305 305 304 305 305 305 305 305 304 305 305 305 305 306 307 308 308 309 309 309 309
316 317 315 319 324 326 325 326 321 320 325 327 327 332 338 337 333 330 330 330 330 332 332 330 328 328 329 329 329 329 329 329 329 329 331 331 332 332 331 330 331 330 329 329 330 330 329 328 328 326 326 326 326 325 325 324 322 321 320 318 321 324 323 323 321 316 311 310 312 314 313 312 309 306 304 305 305 305 305 305 305 305 305 306 306 307 307 307 308 308 309 309 310 310 310 310 310
316 317 318 319 323 326 324 324 323 319 320 324 327 332 335 334 331 328 329 330 329 329 330 328 327 328 328 329 330 330 330 330 330 330 331 331 330 330 330 330 330 331 330 329 330 330 329 330 330 329 329 328 327 326 325 324 323 322 320 320 321 324 323 322 320 314 309 308 310 313 312 311 309 305 304 305 305 306 307 306 306 306 306 307 307 308 308 308 309 310 310 310 310 309 310 310 310
Wind_Speed
8 7 7 9 6 3 1 2 1 2 2 3 4 4 7 9 10 10 14 15 6 5 9 19 22 24 19 15 17 21 17 9 4 5 7 13 16 17 18 18 17 18 22 26 26 25 23 22 22 22 22 22 22 21 20 19 18 18 17 17 16 15 14 13 13 13 13 12 13 14 15 15 15 14 14 13 12 11 10 10 9 8 8 8 8 9 11 11 11 11 10 11 12 13 15 16 17
10 7 8 7 3 0 3 3 2 2 2 4 5 6 8 5 8 12 13 10 2 2 15 24 28 35 31 25 24 24 21 18 18 20 22 23 20 16 16 17 15 17 22 25 26 25 24 22 22 21 22 22 21 20 19 19 18 17 17 16 16 15 14 13 13 12 12 12 13 13 14 14 14 13 13 12 10 9 9 8 8 7 6 6 7 7 10 11 11 11 10 11 13 14 14 15 17
12 9 10 5 1 2 5 2 2 2 3 5 7 6 7 7 10 12 5 1 3 9 17 23 24 25 28 25 23 18 13 17 24 27 27 21 19 20 16 14 14 17 21 25 26 25 24 22 21 21 21 21 21 20 19 18 18 17 16 16 15 15 14 13 13 12 11 13 13 13 13 13 13 12 11 10 9 8 8 7 7 6 5 5 5 6 9 11 11 11 10 10 12 14 13 15 17
11 10 11 5 3 2 3 2 3 2 4 5 6 5 7 9 8 6 1 4 8 12 13 17 16 18 27 19 16 17 12 16 21 22 21 18 18 19 14 13 15 18 23 25 25 24 23 22 21 21 20 20 20 19 19 18 17 17 16 15 16 15 13 13 13 11 11 13 13 13 13 13 12 12 11 10 9 8 7 7 6 6 6 5 6 6 7 10 11 10 10 10 11 13 13 14 17
10 9 8 5 4 2 1 2 3 4 6 5 4 6 6 6 2 3 3 6 9 10 11 15 7 14 26 16 11 10 9 15 17 18 21 21 19 17 13 12 15 19 24 25 24 24 22 22 21 20 20 20 20 19 18 18 17 16 16 15 16 15 13 13 13 11 12 12 13 13 13 12 12 11 10 9 8 8 8 7 6 6 6 5 6 6 7 8 10 11 10 9 9 11 12 14 17
10 9 6 6 7 5 2 3 3 5 8 6 6 9 7 6 2 6 3 6 9 8 12 18 13 14 17 16 18 10 9 14 18 21 23 23 18 13 10 11 14 21 25 25 24 23 22 22 21 20 20 20 19 19 18 17 17 16 15 16 16 15 13 13 12 11 12 12 13 13 13 12 11 11 10 9 8 8 8 8 7 6 6 6 6 7 7 7 9 10 10 9 9 9 11 13 15
11 7 5 5 8 5 2 3 5 6 8 8 9 12 9 7 4 5 1 3 6 4 10 20 26 21 10 10 17 14 11 17 22 22 21 20 14 9 8 11 16 22 26 24 23 22 22 21 20 20 20 19 19 18 18 17 16 16 15 16 16 14 12 12 12 12 12 12 13 13 13 13 12 11 9 9 8 9 9 9 8 7 8 7 7 7 7 6 7 9 10 9 9 9 10 12 14
10 5 5 3 3 2 3 4 6 7 8 11 11 13 10 8 7 4 2 4 1 2 10 20 28 17 8 13 12 13 14 16 22 22 21 17 10 9 10 14 19 24 24 23 23 22 21 20 20 20 19 19 19 18 18 18 16 16 16 16 16 14 12 13 13 13 12 12 12 13 13 13 13 12 10 9 9 10 10 9 9 8 8 8 7 7 7 6 6 8 9 9 9 9 9 10 13
10 6 4 2 2 2 4 4 7 9 11 13 14 14 8 4 5 4 3 5 2 2 6 14 21 12 11 21 16 16 19 17 23 22 20 15 11 14 15 15 19 25 24 23 22 21 21 20 20 20 20 20 19 19 18 18 17 17 16 16 15 13 13 13 14 13 13 12 13 14 14 14 13 12 11 9 9 10 9 8 8 8 7 7 6 5 5 4 5 6 7 8 9 9 8 9 12
8 9 5 1 3 4 5 5 7 9 12 13 15 14 5 6 5 5 3 3 1 4 11 18 21 19 17 18 14 20 25 23 25 23 19 17 17 18 18 15 15 22 23 23 22 21 22 21 21 20 20 21 20 20 19 19 18 17 17 16 15 13 14 14 14 14 13 13 13 14 14 14 12 11 11 10 9 9 9 7 6 6 6 6 5 4 3 3 3 4 5 7 9 9 9 9 10
6 9 7 2 3 4 5 6 8 8 11 12 14 14 10 12 8 5 2 2 4 3 14 22 18 23 19 11 14 20 25 23 22 23 20 19 21 21 21 16 11 17 21 23 24 23 24 23 22 21 21 21 20 20 20 20 19 18 18 16 15 14 14 15 14 14 13 14 14 13 13 13 11 11 10 9 9 8 8 7 6 6 6 6 6 5 4 3 2 3 5 6 8 9 9 10 10
6 5 5 2 3 4 6 6 8 10 10 10 11 7 14 15 9 4 2 2 2 5 5 14 18 23 15 6 15 20 23 22 19 20 20 19 22 23 22 18 14 16 20 24 25 24 25 25 23 22 21 20 21 21 20 20 19 19 18 16 15 15 15 15 14 13 13 14 13 13 12 12 11 9 9 8 8 7 7 6 5 5 5 5 5 5 5 5 5 4 5 5 7 8 9 9 9
9 4 3 3 4 4 7 7 8 9 7 8 7 8 17 13 7 4 4 3 2 4 2 17 27 23 12 10 18 21 22 21 19 20 21 20 23 24 22 19 16 15 19 24 25 25 25 25 24 23 22 21 21 21 21 20 20 18 18 16 15 15 15 15 14 13 13 13 13 12 11 11 10 9 8 7 6 6 6 6 5 5 5 5 5 5 5 5 5 5 5 4 5 7 9 9 9
13 9 4 3 4 5 6 7 8 7 5 5 2 6 11 7 6 6 4 3 5 8 14 22 26 20 13 13 16 22 23 21 21 22 22 22 23 23 21 19 16 14 19 25 25 25 25 25 24 24 22 22 22 21 21 20 19 18 17 16 15 16 15 14 13 13 13 13 13 13 11 10 9 8 8 7 6 5 5 6 6 5 5 5 5 5 5 5 4 4 4 3 3 5 7 8 8
17 14 5 3 5 4 6 6 8 6 5 6 1 4 8 5 6 10 7 6 13 17 18 15 14 13 13 11 13 25 24 23 24 23 23 22 22 21 20 19 16 15 19 24 25 24 24 25 25 25 24 23 23 22 22 20 19 18 17 16 16 16 15 13 13 13 13 12 13 12 11 10 9 8 8 7 6 5 5 5 5 5 5 6 5 6 6 5 4 3 3 3 2 2 4 5 6
20 14 3 4 6 5 6 6 8 6 5 6 1 2 6 3 6 11 3 5 17 19 18 12 8 11 18 17 20 28 25 24 25 23 22 20 21 20 20 18 15 16 20 24 24 24 23 24 25 25 25 24 23 23 22 21 19 17 17 16 16 16 14 13 13 12 12 12 12 12 12 10 9 8 7 6 6 6 5 5 4 4 4 5 5 6 6 6 6 5 4 4 3 2 2 3 4
19 12 4 4 6 5 7 6 6 4 3 4 7 9 4 4 8 10 8 17 24 22 24 18 12 16 19 20 26 30 26 26 25 23 23 22 22 22 21 18 16 17 20 24 23 24 23 23 26 26 26 25 24 23 22 21 19 18 17 16 16 15 13 12 12 12 13 12 11 12 11 10 9 8 7 6 6 6 5 5 4 3 3 4 5 5 5 6 6 6 5 4 3 3 3 3 4
13 6 4 5 6 7 9 9 7 3 2 3 6 10 7 4 7 6 9 24 28 22 25 25 20 19 19 23 29 29 27 27 26 24 24 24 24 23 24 20 19 18 20 24 23 23 23 23 25 25 26 25 25 24 22 21 20 19 18 17 16 15 14 13 13 13 13 12 11 10 10 9 8 8 7 6 6 5 5 4 4 3 3 3 3 4 5 5 5 5 4 3 3 3 4 5 7
10 3 4 6 6 9 14 12 12 9 4 5 5 6 5 5 6 5 3 15 22 17 18 26 29 26 25 29 30 28 28 27 25 25 24 25 24 24 26 23 21 21 21 23 24 23 22 23 24 24 25 26 25 24 23 21 20 19 18 18 17 17 15 14 14 13 13 12 11 10 9 8 6 7 6 6 6 5 4 3 3 3 2 2 2 3 4 4 4 4 4 4 3 4 7 9 10
10 8 4 5 7 11 18 17 19 19 8 4 5 2 1 5 4 4 4 12 16 11 11 19 24 26 28 30 30 29 27 26 25 24 23 24 24 24 25 24 23 23 22 23 25 22 20 23 25 24 25 25 25 24 24 21 19 19 19 18 17 17 16 15 13 13 13 12 11 10 9 8 7 7 6 5 5 4 4 3 2 2 1 2 2 2 2 3 3 4 6 6 5 7 10 11 10
8 10 4 7 10 10 19 22 23 24 13 2 3 3 0 9 8 3 7 12 7 9 18 20 23 28 29 29 30 29 26 25 24 21 21 22 22 23 23 22 22 22 24 26 26 22 19 22 25 25 26 25 24 24 23 20 19 19 19 18 17 16 17 16 14 13 13 12 11 11 9 9 8 7 6 5 4 4 3 3 3 2 1 1 2 2 2 2 3 3 5 5 5 6 8 9 8
7 9 10 14 14 11 21 23 21 20 11 4 6 5 7 12 8 6 3 6 4 11 22 25 27 28 29 29 29 29 27 25 23 21 20 19 20 21 21 21 20 22 27 28 27 23 20 21 22 24 26 25 24 23 21 19 18 18 18 18 17 16 18 17 16 14 12 12 12 11 11 10 9 8 7 6 5 5 4 3 3 3 2 2 2 3 3 4 4 4 3 4 5 5 6 6 5
8 8 12 18 19 16 22 24 21 16 8 6 7 10 13 9 3 5 5 12 13 18 21 23 25 26 28 27 26 27 28 27 25 22 20 19 20 20 22 23 21 23 28 29 27 24 21 21 21 23 25 24 24 23 20 18 17 16 16 17 17 16 18 18 17 15 13 13 12 11 11 10 9 9 8 7 6 6 4 3 3 3 4 4 4 3 4 4 4 4 3 3 5 5 6 5 2
12 7 10 16 20 19 22 26 22 13 5 4 4 9 13 4 1 4 13 24 22 23 21 20 23 24 26 24 23 26 27 28 26 23 21 20 21 20 23 23 21 24 27 27 26 23 21 20 21 23 24 24 23 22 19 17 16 15 15 16 16 16 17 17 16 16 14 14 13 11 11 10 10 10 8 7 7 6 5 4 4 4 4 5 5 4 4 4 3 3 3 3 4 5 5 4 2
11 9 11 14 18 22 24 27 22 13 7 6 2 5 12 8 3 5 12 27 25 25 24 21 21 21 23 21 20 23 25 26 25 23 22 21 21 21 23 22 21 24 23 24 25 22 20 20 20 21 22 22 21 20 19 17 16 15 15 15 16 16 16 16 16 15 14 14 12 10 9 9 9 8 7 7 7 7 5 4 5 5 5 6 6 6 6 5 2 3 4 4 4 5 5 4 4
9 11 14 13 15 21 23 24 23 17 9 12 7 6 12 11 2 6 7 27 27 27 27 22 22 21 21 19 17 20 23 25 24 23 23 21 22 22 23 21 20 22 20 21 22 20 19 18 16 18 20 20 19 18 18 17 15 14 15 15 15 15 14 15 15 13 13 13 12 10 9 8 8 7 6 6 7 8 7 5 5 5 5 7 7 7 6 5 3 3 4 4 4 5 5 4 4
13 15 15 15 18 21 22 23 22 19 8 8 4 2 9 11 3 5 5 25 30 28 28 23 23 23 21 18 16 17 20 23 23 23 22 21 22 22 22 20 18 18 17 19 20 18 17 15 14 17 20 21 18 17 16 15 15 15 15 14 13 12 12 12 13 13 13 13 12 11 9 8 9 8 7 8 8 9 8 6 6 6 6 7 7 7 6 5 4 5 4 4 5 5 4 4 4
18 17 14 14 17 19 20 20 19 16 7 5 3 3 8 9 6 7 12 19 32 29 27 26 25 25 22 19 17 17 18 21 22 21 22 22 21 22 20 17 16 15 15 17 18 16 14 14 17 20 20 20 19 18 17 16 16 16 15 13 12 11 10 9 10 12 12 12 12 10 9 8 9 9 9 10 9 8 7 6 7 8 8 7 6 6 6 5 4 5 4 4 4 5 4 4 4
19 16 11 10 10 12 14 11 15 14 4 8 8 5 7 6 6 14 20 17 29 33 29 29 28 27 25 21 19 18 18 20 21 20 22 21 19 20 17 14 14 14 13 14 13 13 14 16 20 21 19 20 19 18 18 17 16 16 14 13 12 11 9 7 8 10 10 11 11 11 9 8 8 9 10 10 9 8 8 7 7 8 9 8 6 6 6 5 4 4 4 3 3 4 3 2 2
13 10 6 7 8 6 8 7 13 13 5 12 11 4 7 7 9 17 22 20 24 32 30 30 29 28 26 24 22 20 19 20 21 21 21 18 16 18 14 9 11 12 11 11 10 13 17 17 20 21 21 20 19 18 19 18 18 17 16 14 12 10 8 7 8 9 9 9 10 10 9 8 9 10 10 10 8 8 8 6 6 8 8 7 6 6 6 5 4 5 4 3 2 2 2 2 1
6 5 4 4 5 4 6 6 9 9 8 16 12 3 7 7 10 19 23 24 22 27 28 30 29 28 28 27 25 23 22 22 22 22 21 16 14 14 11 8 9 10 9 12 12 15 18 19 21 23 22 21 21 21 20 19 19 19 17 14 12 11 9 8 8 7 7 7 8 8 8 9 10 10 9 8 7 7 7 6 6 8 8 7 6 6 6 5 5 6 5 3 2 2 2 2 2
3 4 5 3 5 4 6 8 9 9 9 17 12 3 7 6 11 21 25 27 21 25 26 28 30 30 31 29 27 25 22 21 21 21 20 16 13 10 8 8 9 10 11 15 17 18 21 23 24 24 23 23 22 22 21 19 19 19 18 15 13 11 9 8 6 4 4 6 7 6 6 7 8 8 6 5 5 6 7 6 7 8 7 7 6 5 6 5 5 7 6 4 3 2 2 2 3
3 4 5 4 5 4 6 9 12 13 10 13 12 5 4 4 13 23 26 28 22 25 24 29 34 32 33 31 28 26 23 22 20 18 18 16 13 9 6 6 7 10 12 16 18 19 24 27 25 25 24 23 21 22 21 19 19 19 17 14 12 11 8 7 6 5 5 6 7 6 5 6 6 4 3 3 5 6 8 7 7 7 7 7 6 6 6 5 5 6 5 3 3 3 3 3 4
4 4 5 6 7 5 5 7 11 15 12 10 11 8 6 5 13 22 25 27 23 26 23 30 37 33 31 30 28 27 25 24 22 20 20 16 12 9 6 6 9 13 13 16 18 20 26 28 27 26 24 22 22 22 21 20 19 18 16 14 13 13 10 9 9 7 6 6 8 7 7 6 5 5 4 4 6 7 7 7 6 6 6 6 5 6 5 4 5 5 4 3 3 4 4 4 5
6 6 5 6 8 9 9 8 8 12 13 12 11 10 10 8 11 17 18 20 16 22 23 28 37 33 29 29 28 28 26 25 22 21 20 15 14 12 8 8 12 14 16 18 22 25 28 28 27 25 23 24 24 23 22 22 21 19 18 16 16 15 12 11 9 6 6 7 8 8 8 7 5 6 6 6 6 6 5 5 5 5 5 5 5 6 5 4 4 5 4 3 4 4 4 5 5
10 10 6 5 7 7 11 13 12 11 12 14 12 11 13 11 11 13 15 18 15 18 23 24 32 32 29 30 29 30 27 22 21 22 20 16 16 15 12 11 13 16 19 23 25 25 28 29 28 26 24 25 26 24 23 22 22 21 21 19 17 14 12 11 7 4 7 8 7 7 8 8 6 6 6 6 6 5 4 5 5 5 5 5 5 5 5 4 5 5 4 4 5 5 5 5 6
11 10 7 8 7 6 10 13 14 11 9 14 13 10 14 13 10 12 16 20 15 14 20 19 28 30 29 30 28 27 22 20 22 22 18 17 16 15 14 15 17 19 22 24 24 25 28 29 28 26 25 26 25 24 23 23 24 23 22 20 17 14 13 12 8 6 7 8 8 7 7 7 7 7 7 6 6 5 4 4 5 5 5 5 5 5 5 5 5 5 5 6 6 6 5 6 7
10 7 7 8 8 8 11 15 16 12 7 11 11 9 12 13 10 12 12 11 6 11 15 16 26 28 27 30 25 25 28 26 24 21 16 16 16 13 13 18 22 23 23 24 26 27 29 29 27 26 26 25 24 24 24 25 25 23 23 21 17 15 14 13 11 9 8 8 9 8 7 8 7 7 7 7 7 6 6 5 6 5 5 5 5 5 5 5 5 6 6 7 7 7 6 6 7
9 6 6 6 7 7 11 16 14 7 6 8 11 9 9 11 13 12 7 9 11 16 19 21 30 30 26 26 28 32 31 28 26 21 16 16 15 13 14 20 25 25 25 26 27 29 30 29 27 26 26 25 25 24 24 24 24 22 20 19 17 17 17 14 13 13 10 9 8 7 8 9 8 6 6 7 8 7 7 6 6 7 6 5 5 6 6 6 6 7 7 7 8 8 7 7 7
6 5 5 6 7 5 6 10 8 2 6 6 8 4 3 6 8 8 6 11 15 20 23 23 27 26 24 31 40 39 38 38 34 27 22 19 19 20 21 24 26 27 28 28 29 29 29 29 28 28 27 27 27 25 24 24 23 22 19 18 17 18 18 15 15 14 13 12 11 9 10 10 8 8 6 5 5 7 8 7 6 8 8 7 7 7 6 7 8 7 7 6 7 8 8 8 8
4 4 5 5 8 8 6 8 10 7 4 5 7 4 5 3 3 6 6 9 12 15 17 14 20 34 39 40 41 41 42 41 37 32 27 23 25 27 26 26 27 28 30 30 30 29 29 29 28 28 29 29 28 26 26 25 24 23 21 19 19 18 17 13 14 15 13 12 11 13 13 10 9 10 8 5 5 8 8 7 6 6 8 8 8 8 7 8 8 8 7 7 8 8 7 8 9
4 4 6 8 11 11 8 10 8 6 5 2 6 3 5 5 3 6 6 4 8 10 13 11 25 45 47 42 40 40 37 31 30 28 24 24 26 28 28 28 30 31 31 30 29 29 29 29 28 28 30 31 29 28 27 26 25 25 23 22 21 20 17 13 12 13 12 11 13 14 13 13 12 11 9 6 7 11 10 8 7 6 6 6 7 8 9 8 8 8 8 8 7 7 7 7 8
3 3 5 10 12 9 8 9 6 1 3 2 4 4 3 6 5 7 5 5 8 9 8 8 24 40 43 44 41 37 33 31 29 24 22 25 27 28 29 31 33 32 32 31 30 30 29 28 28 30 31 31 30 29 28 26 25 24 23 22 20 19 17 14 13 13 13 13 14 14 12 13 13 10 7 6 7 12 12 10 9 7 6 5 6 8 8 8 7 7 7 8 7 7 7 7 8
4 4 6 11 12 9 7 5 5 3 2 1 2 5 2 4 5 8 6 5 6 9 8 12 23 32 37 41 39 36 36 36 33 28 26 26 26 28 30 31 32 31 32 32 31 31 29 28 28 31 32 30 29 28 27 25 24 23 22 21 19 17 17 17 16 16 14 12 13 13 12 12 10 8 6 6 7 11 12 12 9 7 6 4 5 5 6 7 7 8 7 8 8 8 7 7 8
5 6 8 11 10 10 7 5 6 2 3 2 3 5 2 4 6 7 7 5 6 8 11 15 21 27 32 35 36 37 37 34 31 28 26 26 27 28 28 29 30 30 31 31 30 30 28 27 29 31 32 30 29 27 25 23 22 21 21 21 19 19 18 18 17 17 15 12 13 14 13 14 14 11 9 7 9 11 14 14 10 9 8 4 4 5 7 8 7 8 8 9 9 8 7 7 8
6 7 9 9 8 9 7 5 5 1 3 4 5 3 2 4 5 4 6 7 7 7 10 14 19 28 32 33 34 33 32 33 30 26 25 26 28 28 28 30 30 28 28 29 29 29 28 27 28 31 32 30 28 26 24 23 21 21 21 20 20 19 17 17 17 16 15 15 16 16 15 15 15 13 11 9 9 11 15 16 13 12 10 6 6 7 9 9 8 8 9 9 9 8 8 8 8
7 6 7 7 7 6 5 4 4 3 1 6 6 3 2 3 6 3 4 5 6 7 9 11 15 22 28 32 34 30 31 36 31 25 26 28 28 28 29 31 30 28 28 27 27 28 28 28 29 31 32 30 28 26 24 23 22 22 22 20 18 17 16 17 17 17 17 17 17 17 16 15 14 14 14 13 11 10 11 15 15 13 11 8 7 8 9 9 9 9 9 9 9 9 9 9 9
7 5 4 3 5 4 3 1 3 2 4 5 6 5 4 3 5 4 4 3 7 12 12 11 12 16 21 28 31 30 33 36 31 29 29 28 29 29 30 31 30 29 28 25 25 27 27 28 31 32 32 30 29 27 24 23 24 24 21 18 16 15 15 15 16 17 17 17 18 17 14 13 13 13 14 14 14 11 8 13 17 15 13 11 9 7 8 9 11 11 10 10 11 11 11 11 11
6 5 4 1 2 2 2 2 3 4 4 4 7 6 4 4 2 3 5 7 7 11 15 16 16 18 21 26 28 29 34 35 30 30 29 27 29 29 30 31 29 28 28 25 25 26 27 29 31 31 30 30 29 27 25 25 26 24 21 18 16 15 14 14 14 16 16 16 16 15 12 10 10 11 13 14 14 12 9 13 18 17 15 13 10 8 8 10 11 11 10 11 12 14 15 16 16
4 4 5 3 2 1 2 3 2 2 4 6 8 7 4 1 1 3 6 8 6 11 20 25 25 26 27 27 26 26 30 31 29 29 28 26 26 27 29 31 29 28 28 26 25 25 27 29 29 28 28 29 28 25 24 25 25 23 21 19 17 16 15 14 15 16 16 16 14 12 9 8 8 11 13 13 12 11 10 13 16 17 16 13 11 9 9 10 11 10 10 11 13 16 17 18 17
4 4 5 4 4 4 3 2 2 3 3 5 5 4 2 2 2 2 8 12 15 17 22 28 29 30 30 28 29 28 28 28 26 25 25 23 23 25 28 30 31 30 27 26 26 25 27 30 29 27 27 28 26 23 23 24 23 22 21 19 17 16 15 15 15 16 16 16 14 11 9 7 8 10 12 11 11 10 11 12 14 16 17 14 12 10 10 11 11 11 11 11 14 16 17 17 16
3 2 2 4 4 5 3 2 4 4 1 3 1 1 2 3 2 2 9 13 16 19 20 22 21 24 27 29 31 33 31 27 22 20 22 22 24 26 27 28 30 28 25 26 27 26 27 30 29 27 26 27 25 23 23 23 22 22 21 19 18 17 16 16 16 16 16 16 14 11 9 7 7 9 10 10 10 10 11 13 14 16 16 14 12 10 12 14 13 13 12 13 15 16 17 17 16
2 1 2 6 5 6 4 2 2 3 2 2 1 2 1 2 1 3 10 11 11 14 16 16 15 19 24 27 30 34 34 30 23 21 23 25 27 27 25 24 26 27 26 25 27 27 27 28 27 26 26 27 26 25 24 22 22 22 20 19 18 17 17 17 17 17 16 15 15 13 10 8 7 8 9 9 9 9 10 12 13 14 14 13 12 11 13 13 13 13 13 14 16 16 16 15 15
3 2 5 3 2 2 4 2 1 3 1 3 3 5 3 3 1 1 8 10 8 9 10 13 18 22 23 25 29 31 32 31 27 25 26 27 28 27 24 23 25 27 26 25 26 27 26 26 26 25 26 27 26 25 24 23 22 22 20 20 19 18 18 18 17 17 17 17 16 14 11 9 7 7 9 9 8 9 11 12 13 14 14 14 14 14 14 14 14 15 15 15 15 14 14 15 14
5 4 5 2 3 2 1 2 2 2 2 3 1 3 2 2 1 1 6 8 7 7 8 10 13 17 20 23 28 30 29 29 29 28 28 28 29 28 26 25 24 25 24 24 26 25 24 25 25 25 26 26 26 25 24 24 24 22 21 21 20 18 18 18 17 16 17 18 16 13 11 9 8 8 9 9 9 11 12 13 13 14 15 16 16 16 16 16 17 18 18 18 17 16 16 17 17
5 3 0 2 4 3 1 2 3 3 2 2 2 2 1 2 3 3 6 7 8 8 7 8 9 14 19 21 24 26 27 28 30 29 28 29 29 26 26 23 22 23 23 24 26 25 23 24 25 27 27 27 28 27 27 27 26 25 23 22 21 19 19 18 16 16 17 18 15 12 12 10 8 9 9 9 9 11 13 13 13 14 16 17 18 18 18 18 19 20 19 19 18 17 17 17 17
4 4 1 1 2 2 1 1 2 4 2 2 1 1 4 4 3 3 7 7 7 8 7 7 10 16 19 21 22 22 23 26 28 27 26 27 25 23 23 22 22 23 25 26 26 26 25 25 26 27 28 30 31 30 29 29 28 26 24 23 23 21 19 18 16 14 16 15 13 11 12 11 9 10 10 10 10 11 12 13 14 14 15 16 17 18 18 18 18 18 17 17 16 15 15 15 15
3 1 2 1 2 4 3 2 3 2 3 2 4 2 4 4 3 2 4 6 6 8 9 8 11 17 20 20 22 21 22 23 24 24 22 21 20 18 19 21 21 23 25 27 26 26 26 25 25 25 27 30 31 31 30 29 28 26 24 24 24 23 20 18 15 13 12 12 12 11 11 11 11 11 11 11 11 11 12 13 13 13 14 15 15 15 16 15 15 15 14 14 13 12 12 12 11
Wind_Direction
158 147 142 135 122 83 336 200 219 245 194 267 247 243 245 225 239 263 268 275 287 304 54 81 79 80 87 90 90 72 51 37 68 98 127 143 144 162 162 154 158 155 155 152 147 146 143 141 139 140 141 143 144 146 152 154 152 149 146 147 147 143 136 127 123 121 117 114 114 112 109 108 109 114 117 120 121 123 127 130 132 136 142 137 127 128 128 124 123 116 107 102 97 98 101 97 94
147 130 134 140 125 100 293 195 192 262 168 266 247 226 256 251 243 250 259 272 265 51 59 73 81 88 93 85 76 68 56 54 79 102 117 135 137 139 148 149 150 151 157 153 149 146 142 140 139 140 142 144 145 148 154 155 154 150 149 150 148 144 137 127 127 125 120 120 119 118 117 115 114 116 118 121 123 124 126 131 133 131 135 138 133 137 139 134 130 122 112 108 101 98 101 99 98
153 142 136 146 212 223 290 268 204 248 175 246 252 228 262 268 251 256 260 204 107 75 60 63 65 78 84 72 64 69 69 71 92 108 116 138 141 132 143 146 148 154 157 154 149 145 141 140 140 141 142 144 146 151 155 156 155 152 152 150 148 145 137 131 132 131 125 124 125 125 124 122 121 121 124 126 129 130 127 128 127 122 123 132 139 147 148 140 134 128 119 114 106 101 100 101 101
166 157 142 169 254 221 268 237 201 222 216 240 258 245 244 248 246 264 3 92 78 65 61 71 58 64 80 78 75 76 68 79 104 115 117 147 153 136 138 143 152 156 156 155 149 144 142 140 140 140 140 143 147 152 155 156 156 154 154 151 149 146 139 136 137 135 130 127 130 132 129 128 127 127 129 133 138 141 139 138 131 126 128 133 145 156 156 146 140 135 128 123 113 106 102 102 102
173 164 152 187 241 257 248 229 207 199 231 237 267 278 263 259 170 115 44 51 67 53 56 89 82 66 75 72 76 86 86 87 110 125 123 138 145 134 133 141 153 158 156 153 148 145 143 141 140 139 139 142 147 152 154 155 156 156 155 152 150 148 141 140 141 137 133 131 135 136 134 132 131 132 134 139 143 147 152 152 143 132 132 134 145 160 161 153 147 143 138 133 122 113 109 106 104
165 163 177 219 252 290 297 249 242 235 239 232 259 270 274 286 109 110 57 41 63 53 68 95 111 91 77 72 71 81 122 110 118 132 133 135 135 134 140 145 155 160 156 151 149 147 143 142 139 138 139 142 146 148 151 154 156 156 154 153 152 149 144 143 141 138 136 136 139 138 135 134 134 135 136 141 144 150 155 157 151 135 131 133 140 153 160 161 157 150 148 144 134 125 118 111 108
154 168 198 217 251 269 265 254 257 260 249 236 244 256 258 248 187 131 138 64 58 62 97 107 108 96 86 99 74 71 121 133 129 136 143 141 139 136 147 152 160 160 155 152 149 147 143 141 139 138 138 139 142 143 147 151 154 155 154 154 153 152 147 146 144 141 142 141 141 136 134 135 136 137 136 136 138 146 152 152 146 132 128 133 137 145 155 165 166 158 153 151 146 139 129 120 115
161 209 229 196 253 231 226 257 258 260 262 256 255 264 261 214 170 135 134 110 108 137 129 122 110 90 74 108 84 79 115 137 137 141 140 140 147 139 142 150 158 157 152 151 148 147 142 140 139 138 137 137 139 141 145 148 150 152 153 154 154 155 150 149 147 146 147 146 140 134 133 133 135 136 133 128 126 135 143 145 139 132 127 128 133 139 153 166 172 164 155 157 157 150 142 130 122
177 225 252 221 231 250 248 252 253 256 261 262 263 268 265 189 118 66 42 82 145 124 125 131 117 107 94 97 92 102 114 129 135 139 138 142 147 133 137 148 156 154 152 152 150 148 143 142 141 139 139 139 140 143 145 146 148 150 153 155 157 158 153 151 151 151 151 148 140 133 133 132 133 130 128 126 125 128 132 137 134 132 128 123 125 131 147 161 167 163 157 163 163 158 153 140 129
192 221 243 270 216 254 257 252 253 254 256 257 260 253 204 142 109 80 39 45 324 25 93 110 109 114 108 98 100 115 121 130 136 138 142 143 136 132 143 154 152 148 153 154 152 151 145 145 145 144 144 143 144 145 146 146 148 152 155 157 160 160 154 155 154 154 154 150 142 135 134 132 131 128 127 128 128 127 126 129 126 123 123 120 119 120 134 147 165 166 160 167 170 170 164 148 134
212 219 225 279 246 250 246 255 256 257 260 258 264 244 169 127 104 90 63 352 312 342 107 107 105 113 105 99 112 128 136 143 146 143 147 147 140 143 154 160 144 142 154 158 156 154 149 149 150 149 148 147 148 146 147 149 152 155 157 160 162 161 156 158 156 155 156 151 143 135 132 129 130 132 129 128 129 129 126 126 123 114 109 108 106 100 102 105 126 152 155 168 177 181 172 157 142
234 223 204 230 231 238 243 256 257 264 268 263 271 220 142 122 108 114 150 208 238 271 174 129 134 125 104 103 126 140 149 154 158 150 154 156 150 153 162 162 149 146 156 161 160 157 154 153 153 152 151 150 149 149 150 152 156 157 160 164 164 162 160 161 157 156 156 150 143 136 133 133 136 135 130 131 131 130 129 128 122 103 94 94 92 85 79 85 88 106 134 161 179 187 181 170 155
237 246 199 224 230 235 249 259 264 273 282 271 262 147 130 125 125 139 163 192 249 291 174 139 142 128 107 125 137 149 155 160 160 155 158 159 157 160 166 163 154 152 157 162 163 161 157 155 155 154 154 153 153 152 154 156 158 159 162 167 167 165 165 163 157 156 155 149 144 142 141 141 141 137 132 133 130 128 128 125 114 96 91 88 86 85 77 79 85 94 112 143 172 185 187 184 174
228 244 231 251 254 249 254 260 268 274 282 276 288 112 113 109 106 75 60 52 54 95 108 128 131 111 112 127 140 157 156 160 158 157 161 161 162 163 168 167 161 157 158 163 165 164 160 158 157 155 156 157 158 157 158 160 160 162 166 170 170 169 168 162 155 155 154 148 146 148 149 147 146 144 138 139 136 132 129 123 112 100 95 90 86 86 83 82 85 87 92 112 157 182 188 191 192
226 242 243 261 266 268 263 260 267 272 267 249 256 87 90 67 90 75 41 49 76 98 105 121 127 110 147 155 157 164 159 161 160 159 160 161 163 162 167 169 165 160 161 165 167 167 164 162 159 157 161 162 163 161 160 162 162 165 168 171 173 171 167 160 155 155 155 151 149 152 155 155 156 153 146 146 147 145 141 128 116 105 94 88 83 81 80 78 81 89 91 93 105 158 187 194 204
226 239 257 256 263 271 264 263 271 272 267 256 284 104 116 82 124 111 77 87 84 83 76 84 115 124 158 163 156 162 160 161 161 159 157 157 159 159 163 164 161 159 163 168 168 170 169 165 160 160 166 168 166 164 162 162 163 167 170 173 174 171 166 160 153 155 160 157 156 158 161 162 161 159 151 150 153 147 139 125 119 106 95 89 83 80 78 75 77 82 89 98 105 129 166 184 191
230 231 244 260 262 258 262 260 265 269 285 320 10 13 48 98 133 135 116 98 89 83 76 75 101 124 153 159 151 158 160 161 161 159 158 157 156 158 159 160 160 157 164 171 171 173 173 167 163 167 171 171 168 165 163 162 163 168 172 174 173 171 164 156 152 161 168 162 161 162 162 164 163 161 155 153 149 139 130 128 129 110 94 86 77 77 76 74 73 74 81 97 122 136 134 130 131
236 215 220 243 250 249 260 255 267 301 7 351 18 14 15 62 92 117 105 96 91 85 85 87 97 115 140 145 147 157 160 160 161 161 163 161 161 161 160 164 165 160 165 173 175 175 175 170 168 174 175 173 170 166 164 163 165 169 172 173 172 172 163 153 159 170 171 165 163 162 165 168 169 163 160 160 146 134 136 138 135 122 104 86 72 72 71 71 72 74 80 90 116 135 129 118 105
240 207 218 229 238 252 259 265 288 300 335 8 41 33 0 7 59 108 127 102 99 90 90 97 99 109 127 137 146 157 161 160 162 166 166 165 167 166 163 168 169 164 166 172 176 177 177 175 175 179 178 176 174 168 165 166 167 169 173 173 174 172 157 151 164 174 172 170 162 161 171 172 171 166 164 161 148 147 153 146 132 119 113 103 84 71 64 64 70 76 81 83 98 118 119 113 101
240 229 232 236 238 252 260 267 277 282 298 36 78 121 295 351 16 118 109 92 99 108 111 107 110 121 131 140 149 155 161 160 161 167 168 169 171 171 169 171 172 168 164 166 174 180 181 179 179 182 182 180 178 172 168 169 169 171 173 174 178 167 147 149 167 175 174 171 163 165 173 169 174 173 169 163 155 161 158 154 139 127 143 133 129 112 86 73 79 92 100 108 120 132 135 134 129
230 225 221 251 254 260 261 261 267 281 295 341 81 145 131 347 342 6 85 95 102 143 137 133 133 135 140 148 153 156 160 161 163 169 171 173 174 176 177 176 175 169 162 167 180 186 183 181 181 183 185 184 181 176 172 171 171 173 173 173 179 163 141 148 166 173 171 166 165 167 169 171 182 180 180 177 168 175 163 164 166 166 199 169 160 160 148 139 130 128 132 140 142 151 159 160 162
232 238 225 238 251 267 268 271 285 300 316 10 25 29 342 338 337 331 3 123 148 148 141 143 143 144 150 153 155 158 161 163 167 170 173 174 176 178 178 179 179 171 167 175 186 190 184 179 181 183 185 186 183 179 175 173 173 174 172 169 174 161 142 149 163 170 167 165 169 172 175 181 184 184 194 195 187 190 179 175 176 171 192 202 203 189 178 176 167 160 169 163 142 145 157 159 163
237 258 237 233 237 250 267 277 288 299 329 33 16 341 333 347 359 341 65 123 135 137 140 145 148 153 156 156 157 163 165 165 170 174 174 174 177 179 176 182 184 175 174 180 187 190 185 177 180 184 184 185 181 179 176 172 171 170 167 165 168 156 142 149 162 169 169 170 177 180 186 192 187 188 199 201 200 200 190 186 190 191 197 211 221 214 201 190 184 182 178 160 150 151 157 158 165
236 249 246 243 243 250 262 269 271 268 290 34 23 321 314 332 330 347 103 127 138 138 140 144 147 155 158 160 160 164 168 169 175 178 179 181 181 180 179 186 187 177 178 184 188 189 185 179 180 184 185 184 178 175 173 169 166 165 165 166 164 153 144 150 161 169 172 174 180 188 201 204 193 192 199 202 208 210 208 215 226 231 222 222 226 230 228 215 214 214 189 171 180 181 188 198 200
244 242 245 248 252 258 265 270 272 256 195 139 138 263 278 284 316 321 125 137 145 145 148 147 148 158 162 164 161 163 170 173 177 180 185 190 188 185 182 189 190 181 179 184 189 188 184 181 178 180 183 180 175 171 167 163 163 162 162 164 163 156 152 156 163 171 173 176 185 193 201 199 191 194 202 210 216 223 233 242 242 240 234 228 232 243 243 231 232 231 200 187 197 197 211 214 181
251 247 246 243 249 257 265 272 276 271 203 156 171 198 251 274 346 315 167 148 154 154 151 151 153 163 167 165 164 165 170 175 177 182 189 193 194 192 185 188 189 180 176 176 179 179 173 172 173 180 179 169 164 164 160 160 161 160 160 163 165 162 159 158 161 169 175 183 193 195 193 192 200 208 216 227 234 245 253 246 237 242 242 234 236 243 247 246 244 238 219 205 204 200 208 199 171
262 264 258 245 246 252 257 261 267 277 254 171 173 191 244 253 190 299 226 156 157 153 146 152 158 164 171 168 166 169 173 176 177 183 190 194 196 194 187 185 181 174 173 170 168 167 167 167 173 184 178 161 157 156 156 161 162 163 162 161 167 166 164 157 157 169 180 190 197 199 203 205 216 225 232 240 244 252 259 254 248 249 245 240 239 239 246 254 241 229 227 231 225 216 214 186 163
279 287 284 260 251 251 252 256 266 279 265 200 219 255 250 247 193 226 246 176 156 153 148 154 160 163 172 171 169 174 176 177 178 183 192 195 196 194 187 179 171 165 167 168 161 159 164 160 167 179 171 156 154 151 156 165 167 168 162 157 166 167 165 161 161 173 181 190 198 206 212 213 226 235 238 249 256 254 255 257 257 251 245 245 241 233 236 235 222 219 219 233 238 226 215 179 153
277 284 288 282 277 260 250 253 272 278 232 192 209 238 248 245 208 208 238 216 159 155 156 158 163 164 171 171 172 178 177 180 180 186 198 199 196 190 179 166 167 168 169 170 163 165 169 163 169 175 162 152 150 150 157 164 164 166 162 159 165 163 161 171 179 181 181 186 198 209 213 222 239 240 237 248 258 254 248 246 248 249 249 252 245 230 229 217 201 207 210 218 228 225 217 176 153
267 271 269 280 297 277 253 242 260 268 212 200 203 218 242 235 234 213 229 232 169 155 161 163 163 164 170 172 173 178 176 183 184 189 199 193 187 188 176 160 169 179 184 181 175 173 172 172 177 170 154 150 149 152 158 159 159 161 163 164 166 166 168 183 189 180 179 186 195 207 220 236 237 232 231 236 243 243 240 240 241 244 247 250 247 241 234 220 207 205 210 210 198 207 216 192 190
272 282 278 255 268 272 272 248 241 257 213 202 195 196 240 227 233 222 228 233 188 160 165 164 161 165 172 174 174 177 178 186 189 188 188 177 178 184 183 190 181 179 186 178 163 157 163 171 173 163 150 147 148 153 157 156 157 158 160 162 165 173 176 182 186 179 186 190 189 202 222 231 226 223 222 216 221 226 223 233 244 244 243 245 247 245 234 224 224 215 211 213 202 202 198 193 201
277 265 277 250 241 249 271 258 235 246 221 202 196 206 236 221 236 226 226 235 203 169 172 165 162 165 169 175 173 174 179 186 189 185 179 179 186 178 175 190 174 169 182 177 163 151 159 167 166 160 149 145 148 150 151 154 156 156 157 156 159 170 170 169 175 182 202 189 183 198 207 208 211 215 210 196 200 210 211 222 237 235 233 240 239 230 226 223 225 214 203 211 219 199 176 182 194
268 233 245 246 248 242 245 246 234 239 230 202 197 207 221 213 250 238 227 232 203 171 176 166 164 168 168 173 170 170 176 179 185 177 172 186 199 195 182 174 166 176 185 183 173 156 156 160 161 159 152 151 155 152 152 154 154 153 156 152 147 149 151 152 150 156 175 170 171 177 169 175 185 185 189 195 195 203 212 217 218 217 221 229 223 215 218 217 215 202 189 196 197 182 176 183 188
270 240 226 238 241 241 240 239 230 229 227 210 199 202 220 210 241 244 230 224 194 171 175 161 164 172 170 171 169 170 174 180 184 171 171 185 188 193 189 172 183 184 179 177 171 154 150 154 157 156 155 158 159 157 157 154 150 150 154 147 134 131 136 142 138 139 149 151 156 150 143 158 169 168 174 187 190 199 211 208 204 213 217 215 209 204 201 203 203 189 179 177 181 179 177 177 181
244 240 223 233 232 236 244 246 234 220 211 210 203 196 220 232 239 252 243 231 203 175 171 159 164 170 169 174 172 171 178 183 176 162 170 173 163 172 165 168 183 175 167 159 150 146 148 151 154 155 157 160 158 157 156 151 148 149 149 141 131 130 135 137 129 131 148 151 152 143 138 149 160 165 164 167 181 196 203 195 202 218 210 203 206 198 185 184 180 177 174 169 177 179 168 169 169
240 248 237 234 236 239 241 242 239 225 202 202 204 188 206 227 237 259 263 263 254 194 176 158 158 162 165 171 170 174 180 173 154 149 156 149 146 155 151 170 183 170 165 154 143 147 152 153 155 156 157 161 161 158 154 150 147 146 147 143 135 131 127 123 121 154 171 161 147 133 136 147 152 153 151 156 168 184 200 199 204 208 189 185 198 192 178 169 169 175 177 175 183 181 169 166 165
255 264 271 271 267 263 255 250 238 223 195 197 198 176 196 216 227 248 256 265 267 191 173 154 151 159 161 164 170 168 153 132 132 135 139 146 146 145 152 173 175 165 163 157 152 155 157 157 159 158 155 159 164 160 152 148 145 145 145 143 141 136 130 132 141 164 167 153 142 139 143 149 152 152 149 150 148 153 174 183 187 188 178 178 183 179 169 160 166 174 180 188 191 187 176 168 169
263 269 281 286 282 280 280 275 251 219 176 189 184 163 192 206 217 234 236 244 240 161 167 155 151 158 162 164 158 132 112 109 120 119 127 153 150 147 166 169 165 164 159 157 157 157 159 161 161 159 156 156 160 157 151 148 147 145 143 143 148 152 154 158 157 151 147 142 141 146 150 144 141 147 149 150 147 145 149 150 153 153 160 176 173 165 164 162 171 176 180 190 193 192 186 171 171
255 263 273 276 279 292 293 287 267 205 150 179 177 174 199 200 210 226 206 184 183 174 177 167 157 162 170 157 124 108 108 111 118 126 145 154 145 155 166 156 159 162 157 157 160 159 161 163 162 160 157 156 156 157 155 152 148 145 146 148 153 158 162 165 159 152 155 159 158 151 137 124 115 124 143 149 147 147 146 142 144 141 139 150 148 146 153 158 167 174 178 189 195 194 187 175 176
241 236 255 267 272 288 297 303 313 83 109 137 153 172 237 207 211 240 217 186 189 182 177 173 161 154 149 126 108 111 116 113 117 132 148 151 153 161 157 150 157 161 159 162 163 162 163 164 164 161 159 159 159 160 157 150 146 146 147 148 152 157 160 165 168 168 175 178 175 152 127 116 110 117 136 154 153 150 141 128 139 149 146 141 136 138 147 148 148 153 165 179 189 191 184 176 176
261 229 239 265 273 282 300 315 331 3 37 81 94 45 328 275 234 275 253 195 192 175 160 159 123 111 116 116 111 114 113 112 117 124 135 151 161 163 158 156 161 163 165 166 166 167 166 165 165 162 162 163 162 161 157 151 149 150 151 151 155 160 163 169 169 164 168 169 161 146 140 142 139 137 156 186 174 154 138 119 121 139 149 146 138 140 145 145 141 143 151 157 170 184 183 175 174
292 249 237 254 266 278 299 308 326 1 338 1 84 66 306 299 279 272 271 188 186 156 143 147 108 104 114 118 115 114 112 114 119 121 135 154 163 163 160 161 165 167 166 166 168 170 168 166 164 163 164 165 163 162 159 157 157 158 160 161 163 167 168 166 156 151 154 151 144 145 150 157 163 170 188 200 160 149 144 125 107 97 116 136 143 149 147 145 145 148 152 148 151 169 172 168 171
270 249 252 263 265 267 278 295 316 16 248 251 103 132 253 302 294 264 251 168 166 146 135 127 108 111 119 122 122 123 123 126 128 132 144 155 165 164 161 165 168 169 168 167 169 170 168 166 164 165 167 166 165 164 163 163 164 163 164 167 169 174 169 154 146 150 154 149 147 153 156 160 172 181 187 189 158 151 149 134 115 95 93 109 138 158 155 143 138 139 147 146 142 151 159 165 166
239 227 251 266 269 261 242 253 276 248 203 207 125 137 168 287 271 259 242 165 156 157 130 94 104 116 123 127 131 132 132 135 137 143 149 157 168 166 165 168 169 171 171 170 170 170 170 168 166 168 170 169 168 168 166 167 169 167 167 170 170 171 166 153 152 159 162 161 157 161 161 154 151 137 131 143 141 148 152 143 133 126 125 112 116 154 162 144 135 133 137 141 144 147 150 162 164
238 220 236 257 266 266 247 216 247 252 74 327 247 148 142 270 266 273 256 204 183 169 130 106 115 124 127 131 132 132 136 140 142 148 154 162 167 166 167 170 171 174 173 170 169 169 171 170 169 171 173 173 171 170 170 170 172 168 168 170 163 160 163 159 162 170 174 169 153 150 149 141 140 138 133 124 119 138 152 146 137 140 149 124 95 136 150 136 129 130 134 140 147 148 143 150 152
228 225 240 260 268 271 260 218 220 144 107 263 254 166 148 273 279 279 246 212 194 170 127 119 126 127 131 134 132 134 140 143 147 154 160 164 167 167 168 171 174 176 174 170 167 169 172 172 172 174 175 174 171 171 172 171 171 168 166 166 160 161 167 170 174 176 172 160 147 149 154 153 158 160 155 144 136 146 152 148 141 136 138 127 115 129 132 125 121 122 127 132 136 136 135 140 139
215 223 237 258 269 273 262 208 159 106 199 240 242 216 164 263 284 266 235 217 172 142 115 118 122 124 131 131 130 138 143 143 148 154 162 169 170 168 168 172 173 173 172 168 167 170 172 173 175 175 175 174 173 173 173 169 165 163 163 163 163 167 175 180 179 172 164 158 158 166 171 171 174 171 164 159 159 160 155 154 153 141 133 132 127 123 120 122 124 121 120 122 125 126 128 135 134
208 216 209 253 289 309 333 327 135 156 249 230 211 216 184 207 281 299 321 8 118 126 122 128 120 118 128 127 131 142 144 143 149 156 165 172 171 169 171 173 173 172 170 167 169 172 173 175 177 177 176 175 175 176 173 165 158 161 164 163 169 180 183 180 174 169 167 166 171 178 181 178 177 175 172 170 171 179 174 162 161 152 142 141 139 131 125 127 127 121 119 120 122 121 123 124 121
190 200 181 189 307 330 334 281 194 204 243 220 188 204 211 193 258 332 12 38 100 123 123 131 126 121 126 122 128 142 143 143 151 159 167 173 171 171 172 172 174 173 171 171 174 176 177 179 179 180 178 175 177 178 172 163 162 170 173 167 176 186 182 175 171 172 170 167 170 175 176 174 169 165 167 170 173 177 168 158 160 159 153 148 145 137 130 133 132 125 122 122 123 124 121 118 116
173 174 160 162 158 158 269 262 225 218 249 241 205 203 232 222 15 27 52 54 71 100 117 128 129 131 133 123 121 134 140 143 149 157 168 174 174 174 171 171 175 177 177 178 179 180 180 180 179 180 179 177 181 179 171 167 169 177 177 174 182 186 180 176 174 172 165 162 167 170 170 167 155 150 153 156 158 152 140 143 153 158 154 147 141 135 129 133 134 130 129 126 126 129 125 120 120
213 201 159 164 159 159 211 227 204 218 266 273 223 197 205 183 198 122 80 67 60 73 105 124 128 134 134 124 124 131 135 141 148 158 171 175 176 180 176 175 178 180 181 182 183 184 184 183 181 180 179 180 182 179 173 173 176 178 177 180 188 187 183 177 173 170 165 164 167 167 166 163 154 155 153 148 146 137 126 127 138 149 151 147 143 134 123 125 129 130 130 125 126 134 132 125 124
269 244 174 208 193 151 159 215 197 172 37 323 270 188 189 169 195 112 84 70 60 64 86 108 123 134 127 119 128 135 137 142 148 164 179 180 183 188 182 180 183 181 181 184 187 189 191 190 186 182 183 182 182 181 179 181 184 182 180 185 190 188 183 176 171 170 168 167 166 163 168 173 173 168 156 143 141 137 129 124 127 137 145 148 146 133 118 119 122 122 120 116 120 133 138 134 134
299 319 212 229 202 144 136 245 263 92 78 286 100 100 118 95 20 51 77 70 58 59 68 75 88 108 112 114 126 138 144 148 154 170 183 184 188 190 183 181 184 182 181 186 192 193 195 196 192 189 189 187 185 185 184 187 191 189 186 187 188 187 181 175 173 171 168 167 165 168 178 185 187 176 157 146 141 136 133 129 126 128 133 137 135 127 119 117 116 114 111 109 113 127 137 137 136
136 204 218 254 357 87 115 139 325 63 109 256 150 142 158 115 147 57 80 77 70 69 70 66 70 82 96 109 124 139 150 154 157 170 180 182 185 187 183 181 185 184 184 189 195 197 197 198 198 196 193 190 189 189 189 192 197 197 194 188 186 184 179 176 178 174 170 169 169 175 185 183 181 172 157 149 140 130 128 129 129 126 124 123 123 122 120 118 115 111 107 105 107 116 125 124 118
172 203 203 150 59 6 38 114 189 145 155 284 356 123 121 105 193 167 106 104 97 87 82 77 76 85 98 115 129 140 150 155 160 169 178 180 182 185 185 184 186 187 188 192 198 202 201 200 200 200 198 197 196 195 194 196 201 202 198 190 183 180 177 181 186 181 175 173 173 178 181 177 172 166 157 147 135 126 126 127 126 124 121 118 117 118 117 117 115 111 109 108 107 109 111 111 109
225 251 276 101 131 161 168 148 163 144 163 278 343 20 328 268 247 192 144 132 123 114 99 89 92 102 113 124 134 141 148 154 160 166 174 178 180 184 185 184 186 185 187 194 200 204 204 203 203 202 202 203 202 201 199 199 202 204 200 191 181 178 181 188 191 185 179 179 181 181 179 175 169 162 156 147 137 129 126 125 123 122 121 120 120 119 119 119 118 116 116 115 114 115 114 111 111
254 253 228 132 120 124 117 188 173 137 140 198 119 358 274 260 251 178 145 131 125 127 117 103 108 115 123 132 137 143 149 154 160 164 168 173 178 184 184 184 189 190 192 196 200 204 206 207 207 205 205 206 204 203 202 201 202 202 199 191 182 179 186 193 195 189 183 184 189 188 183 178 169 161 157 151 144 136 130 128 127 127 126 126 126 125 123 123 123 122 122 122 123 124 121 118 119
24 325 281 182 129 112 97 314 273 129 115 178 157 161 268 287 334 26 110 119 124 127 123 115 114 121 129 135 138 144 148 152 161 163 160 162 171 180 184 185 189 192 194 195 197 201 204 205 205 206 209 209 207 206 205 203 202 201 199 192 184 182 189 196 197 190 185 188 194 198 194 185 171 163 160 157 150 141 136 134 134 134 133 132 132 130 128 129 129 127 126 128 130 129 124 123 123